Location: Gleizolles
(44.4833°N, 6.7667°E)
Time: 12:41:12
(UTC+00:00)

A-11 Canister half - Pass Details

Date: 19 June 2024
Orbit: 1515 x 1684 km, 47.2° (Epoch: 24 July)

Event Time Altitude Azimuth Distance (km) Brightness Sun altitude
Rises 20:10:40 0° 264° (W) 4,918 12.3 -7.7°
Reaches altitude 10° 20:13:52 10° 266° (W) 3,917 11.8 -8.1°
Maximum altitude 20:23:57 78° 353° (N) 1,663 9.3 -9.3°
Drops below altitude 10° 20:33:40 10° 80° (E) 3,791 10.8 -10.5°
Sets 20:36:43 0° 82° (E) 4,754 11.3 -10.9°
